| time (UTC) | temp F | wind direction | speed MPH | gust MPH | rain 1hr in | rain 24hr in | rain mn in | humidity % | barometer mb |
| 20260505053033 | 49 | 187 | 0.0 | 0.0 | 0.00 | 0.00 | 0.00 | 97 | 1006.6 |
| 20260505052034 | 47 | 187 | 0.0 | 0.0 | 0.00 | 0.00 | 0.00 | 97 | 1006.6 |
| 20260505051034 | 47 | 144 | 0.0 | 0.0 | 0.00 | 0.00 | 0.00 | 98 | 1006.4 |
| 20260505041033 | 44 | 108 | 0.0 | 0.0 | 0.00 | 0.00 | 0.00 | 97 | 1006.6 |
| 20260505040033 | 43 | 109 | 0.0 | 0.0 | 0.00 | 0.00 | 0.00 | 97 | 1006.6 |
| 20260505035033 | 43 | 109 | 0.0 | 0.0 | 0.00 | 0.00 | 0.00 | 97 | 1006.6 |
| 20260505034034 | 44 | 109 | 0.0 | 0.0 | 0.00 | 0.00 | 0.00 | 97 | 1006.7 |
| 20260505033033 | 45 | 109 | 0.0 | 0.0 | 0.00 | 0.00 | 0.00 | 97 | 1007.0 |
| 20260505032033 | 45 | 109 | 0.0 | 0.0 | 0.00 | 0.00 | 0.00 | 97 | 1007.1 |
| 20260505031033 | 45 | 109 | 0.0 | 0.0 | 0.00 | 0.00 | 0.00 | 96 | 1007.2 |
| 20260505030033 | 45 | 109 | 0.0 | 0.0 | 0.00 | 0.00 | 0.00 | 96 | 1007.4 |
| 20260505025033 | 45 | 109 | 0.0 | 0.0 | 0.00 | 0.00 | 0.00 | 96 | 1007.5 |
| 20260505024034 | 45 | 109 | 0.0 | 0.0 | 0.00 | 0.00 | 0.00 | 96 | 1007.6 |
| 20260505023034 | 45 | 120 | 0.0 | 0.0 | 0.00 | 0.00 | 0.00 | 96 | 1007.6 |
| 20260505022033 | 46 | 122 | 0.0 | 0.0 | 0.00 | 0.00 | 0.00 | 95 | 1007.7 |
| 20260505021034 | 45 | 122 | 0.0 | 0.0 | 0.00 | 0.00 | 0.00 | 95 | 1007.9 |
| 20260505020034 | 47 | 122 | 0.0 | 0.0 | 0.00 | 0.00 | 0.00 | 95 | 1008.0 |
| 20260505015034 | 47 | 123 | 0.0 | 0.0 | 0.00 | 0.00 | 0.00 | 95 | 1007.8 |
| 20260505014033 | 46 | 123 | 0.0 | 0.0 | 0.00 | 0.00 | 0.00 | 93 | 1008.1 |
| 20260505013033 | 48 | 123 | 0.0 | 0.0 | 0.00 | 0.00 | 0.00 | 94 | 1008.2 |
| 20260505012034 | 48 | 123 | 0.0 | 0.0 | 0.00 | 0.00 | 0.00 | 93 | 1008.4 |
| 20260505011034 | 48 | 123 | 0.0 | 0.0 | 0.00 | 0.00 | 0.00 | 93 | 1008.4 |
| 20260505010033 | 48 | 122 | 0.0 | 0.0 | 0.00 | 0.00 | 0.00 | 92 | 1008.5 |
| 20260505005033 | 49 | 134 | 0.0 | 0.0 | 0.00 | 0.00 | 0.00 | 92 | 1008.5 |
| 20260505004033 | 49 | 138 | 0.0 | 0.0 | 0.00 | 0.00 | 0.00 | 92 | 1008.5 |
| 20260505003033 | 49 | 169 | 0.0 | 0.0 | 0.00 | 0.00 | 0.00 | 91 | 1008.6 |
| 20260505002034 | 50 | 169 | 0.0 | 0.0 | 0.00 | 0.00 | 0.00 | 90 | 1008.5 |
| 20260505001034 | 51 | 169 | 0.0 | 0.0 | 0.00 | 0.00 | 0.00 | 87 | 1008.5 |
| 20260505000033 | 52 | 170 | 0.0 | 0.0 | 0.00 | 0.00 | 0.00 | 86 | 1008.2 |
| 20260504235033 | 53 | 131 | 0.0 | 0.0 | 0.00 | 0.00 | 0.00 | 85 | 1008.4 |
| 20260504234033 | 53 | 121 | 0.0 | 1.0 | 0.00 | 0.00 | 0.00 | 84 | 1008.5 |
| 20260504233034 | 53 | 120 | 1.0 | 2.0 | 0.00 | 0.00 | 0.00 | 84 | 1008.7 |
| 20260504232034 | 53 | 111 | 0.0 | 1.0 | 0.00 | 0.00 | 0.00 | 85 | 1008.7 |
| 20260504231033 | 52 | 118 | 0.0 | 1.0 | 0.00 | 0.00 | 0.00 | 88 | 1008.8 |
| 20260504230033 | 51 | 117 | 0.0 | 0.0 | 0.00 | 0.00 | 0.00 | 89 | 1008.9 |
| 20260504225033 | 52 | 128 | 0.0 | 1.0 | 0.00 | 0.00 | 0.00 | 89 | 1009.2 |
| 20260504224033 | 52 | 125 | 0.0 | 1.0 | 0.00 | 0.00 | 0.00 | 89 | 1008.9 |
| 20260504223033 | 52 | 109 | 0.0 | 0.0 | 0.00 | 0.00 | 0.00 | 89 | 1009.1 |
| 20260504222033 | 52 | 149 | 0.0 | 0.0 | 0.00 | 0.00 | 0.00 | 90 | 1009.3 |
| 20260504221033 | 52 | 120 | 0.0 | 0.0 | 0.00 | 0.00 | 0.00 | 91 | 1009.1 |
| 20260504220034 | 53 | 132 | 0.0 | 0.0 | 0.00 | 0.00 | 0.00 | 90 | 1009.4 |
| 20260504215034 | 53 | 122 | 0.0 | 0.0 | 0.00 | 0.00 | 0.01 | 89 | 1009.5 |
| 20260504214034 | 54 | 161 | 0.0 | 0.0 | 0.00 | 0.00 | 0.01 | 89 | 1009.7 |
| 20260504213033 | 54 | 121 | 0.0 | 1.0 | 0.01 | 0.00 | 0.01 | 87 | 1009.5 |
| 20260504212033 | 54 | 132 | 0.0 | 1.0 | 0.01 | 0.00 | 0.01 | 88 | 1009.9 |
| 20260504211033 | 55 | 155 | 0.0 | 0.0 | 0.01 | 0.00 | 0.01 | 86 | 1009.9 |
| 20260504210033 | 55 | 155 | 0.0 | 0.0 | 0.01 | 0.00 | 0.01 | 86 | 1009.9 |
| 20260504205034 | 55 | 108 | 0.0 | 2.0 | 0.01 | 0.00 | 0.01 | 85 | 1010.2 |
| 20260504204034 | 55 | 139 | 0.0 | 1.0 | 0.01 | 0.00 | 0.01 | 84 | 1010.4 |
| 20260504203033 | 56 | 138 | 0.0 | 1.0 | 0.00 | 0.00 | 0.00 | 80 | 1010.4 |
| 20260504202033 | 57 | 171 | 0.0 | 0.0 | 0.00 | 0.00 | 0.00 | 80 | 1010.5 |
| 20260504201033 | 58 | 147 | 0.0 | 0.0 | 0.00 | 0.00 | 0.00 | 76 | 1010.4 |
| 20260504200033 | 59 | 129 | 0.0 | 0.0 | 0.00 | 0.00 | 0.00 | 75 | 1010.3 |
| 20260504195033 | 59 | 223 | 0.0 | 0.0 | 0.00 | 0.00 | 0.00 | 72 | 1010.1 |
| 20260504194034 | 60 | 137 | 0.0 | 0.0 | 0.00 | 0.00 | 0.00 | 70 | 1009.8 |
| 20260504193034 | 61 | 108 | 0.0 | 2.0 | 0.00 | 0.00 | 0.00 | 66 | 1009.4 |
| 20260504192033 | 61 | 135 | 0.0 | 0.0 | 0.00 | 0.00 | 0.00 | 65 | 1009.6 |
| 20260504191034 | 62 | 125 | 0.0 | 1.0 | 0.00 | 0.00 | 0.00 | 64 | 1009.5 |
| 20260504190033 | 62 | 111 | 0.0 | 1.0 | 0.00 | 0.00 | 0.00 | 64 | 1009.4 |
| 20260504185034 | 62 | 95 | 0.0 | 1.0 | 0.00 | 0.00 | 0.00 | 64 | 1009.4 |
| 20260504184033 | 62 | 124 | 0.0 | 4.0 | 0.00 | 0.00 | 0.00 | 64 | 1009.3 |
| 20260504183034 | 62 | 128 | 0.0 | 2.0 | 0.00 | 0.00 | 0.00 | 63 | 1009.3 |
| 20260504182033 | 63 | 116 | 3.0 | 3.0 | 0.00 | 0.00 | 0.00 | 62 | 1009.4 |
| 20260504181034 | 63 | 105 | 2.0 | 6.0 | 0.00 | 0.00 | 0.00 | 61 | 1008.9 |
| 20260504180033 | 64 | 134 | 1.0 | 2.0 | 0.00 | 0.00 | 0.00 | 61 | 1009.1 |
| 20260504175034 | 64 | 102 | 1.0 | 2.0 | 0.00 | 0.00 | 0.00 | 59 | 1008.9 |
| 20260504174033 | 64 | 124 | 0.0 | 6.0 | 0.00 | 0.00 | 0.00 | 59 | 1009.1 |
| 20260504173033 | 65 | 104 | 2.0 | 4.0 | 0.00 | 0.00 | 0.00 | 57 | 1009.1 |
| 20260504172033 | 65 | 123 | 4.0 | 5.0 | 0.00 | 0.00 | 0.00 | 56 | 1009.0 |
| 20260504171034 | 66 | 154 | 0.0 | 4.0 | 0.00 | 0.00 | 0.00 | 53 | 1008.8 |
| 20260504151033 | 73 | 139 | 0.0 | 0.0 | 0.00 | 0.00 | 0.00 | 41 | 1009.5 |
| 20260504141034 | 69 | 179 | 0.0 | 1.0 | 0.00 | 0.00 | 0.00 | 45 | 1009.6 |
| 20260504081033 | 67 | 142 | 0.0 | 1.0 | 0.00 | 0.00 | 0.00 | 49 | 1012.1 |